Location: Nairn
(57.5833°N, 3.8667°W)
Time: 01:29:13
(UTC+00:00)

Transit 2A - Pass Details

Date: 03 December 2020
Orbit: 598 x 960 km, 66.7° (Epoch: 20 January)

Event Time Altitude Azimuth Distance (km) Brightness Sun altitude
Rises 20:01:23 0° 271° (W) 3,556 10.5 -34.0°
Reaches altitude 10° 20:04:13 10° 280° (W) 2,571 9.5 -34.4°
Enters shadow 20:08:44 34° 326° (NW) 1,387 7.6 -35.0°
